Theta_e
307 307 308 312 318 322 323 323 323 324 325 325 324 323 322 321 320 320 321 322 322 321 320 320 319 319 319 319 319 320 320 320 320 321 322 322 322 323 322 323 323 322 322 322 322 320 321 321 320 320 320 319 319 319 318 318 318 317 316 314 314 313 313 312 311 312 311 308 307 309 312 313 313 312 314 313 311 311 308 309 306 306 306 306 305
305 304 305 308 314 319 321 322 321 321 323 324 324 324 324 323 321 321 321 321 322 322 321 320 321 321 320 320 320 321 320 319 320 321 321 322 322 322 322 323 323 323 321 323 322 322 321 321 320 320 320 320 320 319 318 316 317 317 316 314 313 314 313 313 313 313 309 310 306 308 308 313 312 311 311 310 309 307 308 309 307 307 306 306 305
304 305 305 307 311 315 320 321 322 323 323 324 325 324 324 323 322 321 321 321 322 322 322 321 322 321 321 321 321 320 322 322 322 321 321 321 322 322 322 323 323 323 323 322 323 322 322 322 321 321 321 320 318 318 318 317 317 317 316 316 313 311 313 313 314 315 312 307 305 307 304 303 309 310 310 309 308 306 307 308 307 307 307 306 305
304 304 305 306 309 313 316 320 321 322 322 323 324 324 324 323 323 322 322 321 322 322 321 323 322 322 322 321 321 321 320 320 321 319 321 321 321 322 322 322 323 323 323 323 323 323 323 322 322 321 321 321 320 319 318 318 318 317 317 316 315 312 312 313 314 315 314 310 306 309 305 304 302 305 307 305 304 306 307 307 306 308 307 305 304
306 305 304 304 307 311 314 318 321 321 322 323 324 324 325 324 324 323 323 322 322 321 321 322 321 320 320 316 316 318 315 318 318 319 320 320 321 321 322 322 322 323 324 323 322 323 323 323 322 322 321 321 320 320 319 319 319 318 318 316 315 315 312 313 313 314 315 317 312 304 303 304 307 297 299 303 302 303 304 305 305 306 306 305 303
307 307 306 305 306 310 313 315 318 320 321 323 324 325 325 325 325 324 324 323 322 322 322 322 321 321 319 318 316 317 317 317 317 318 319 319 320 322 322 322 322 322 323 324 323 321 323 323 322 322 321 320 320 321 321 320 319 318 318 318 317 317 316 313 312 311 315 315 317 316 312 308 303 298 301 299 300 301 303 304 305 306 306 304 302
306 306 305 304 305 308 312 314 317 319 321 323 324 324 325 325 325 325 324 324 323 322 322 321 321 321 320 319 319 318 318 319 320 321 320 321 321 321 322 322 323 322 322 323 323 322 322 322 322 321 321 321 320 321 321 320 320 319 319 319 318 317 316 314 313 314 309 314 316 316 309 297 303 303 302 296 298 304 305 305 304 304 304 302 301
306 306 305 305 306 307 310 313 315 318 320 322 323 324 324 324 325 325 325 323 324 323 322 322 321 321 320 320 319 319 319 319 320 320 321 320 320 321 321 322 322 323 323 323 323 323 321 322 322 321 321 321 319 320 321 321 321 321 319 320 319 318 317 316 315 314 313 314 314 314 314 306 304 303 301 304 298 296 302 305 305 304 302 301 301
306 305 304 305 305 306 309 312 315 317 319 321 322 323 324 324 324 325 325 324 324 323 322 322 321 321 321 320 319 319 320 320 319 319 320 319 320 320 321 321 322 323 323 323 323 323 320 321 321 321 320 320 318 319 320 321 320 320 319 318 318 318 318 318 317 316 315 315 311 313 314 314 308 304 301 304 300 295 298 303 305 303 303 303 300
305 305 305 305 306 306 307 309 312 316 318 320 322 323 323 324 324 323 324 325 324 324 322 322 321 320 321 320 319 319 319 319 318 318 319 319 319 320 320 321 321 322 322 323 323 323 322 320 321 321 320 320 317 318 319 319 320 320 320 319 319 318 319 318 317 318 317 317 315 314 313 313 312 310 305 302 299 301 301 300 305 303 301 304 303
308 306 305 305 305 305 305 305 307 312 316 318 320 321 323 323 323 323 324 325 325 324 323 322 321 321 321 321 320 319 319 319 318 317 318 319 319 319 320 320 321 321 322 322 323 323 323 322 321 321 321 319 317 318 318 319 320 320 320 319 318 319 319 318 316 317 317 316 315 315 314 314 313 312 312 308 306 298 297 299 302 304 304 303 301
308 307 306 305 303 302 302 303 304 307 314 317 318 320 321 322 323 322 323 324 325 324 324 323 322 321 321 321 320 320 320 319 318 318 318 318 319 319 320 320 320 321 321 322 322 323 323 323 322 321 321 321 320 319 319 319 320 320 320 319 319 319 319 318 318 317 317 317 317 317 317 316 315 314 314 313 309 309 306 301 301 299 301 301 297
305 305 306 305 305 305 302 303 303 303 310 315 318 319 320 321 321 322 322 323 324 324 324 323 322 322 321 321 321 321 320 320 319 318 319 318 319 319 319 319 320 320 320 321 321 322 323 323 323 322 322 321 321 321 320 319 319 320 319 319 319 319 319 319 319 319 319 318 318 317 318 317 317 317 314 312 311 311 308 307 300 300 301 301 298
304 304 304 304 304 304 304 304 304 304 306 312 316 317 319 320 320 321 322 323 323 324 324 323 323 323 322 322 322 321 320 320 320 319 319 319 320 319 320 320 320 320 321 321 322 322 322 323 323 323 323 323 322 322 322 321 320 320 320 320 320 320 320 320 320 320 320 320 320 317 317 317 317 317 316 313 311 310 308 308 299 298 301 300 296
299 300 302 303 304 304 305 305 304 304 304 307 312 316 318 318 319 319 320 321 322 323 324 323 323 323 323 323 322 322 321 321 321 321 320 319 319 319 320 321 321 321 322 322 322 322 322 322 323 323 324 324 324 324 323 323 322 321 321 322 322 322 322 321 321 320 320 319 319 319 317 317 318 318 316 315 314 313 312 309 304 301 297 297 297
298 298 300 301 303 303 303 303 303 304 303 304 307 312 315 317 318 319 320 321 321 321 323 323 324 324 323 322 322 322 320 321 321 320 320 321 320 320 320 320 321 322 322 322 323 323 323 323 323 322 323 324 325 325 325 324 324 323 322 322 322 323 322 321 321 321 320 320 320 320 318 317 318 317 317 317 315 314 313 310 309 308 306 300 294
298 297 298 299 299 299 301 302 303 303 303 303 305 308 312 315 316 317 318 320 320 321 322 323 323 323 323 323 323 322 321 320 321 321 321 321 321 320 320 320 321 321 322 322 322 323 323 324 324 324 323 323 324 325 325 325 325 324 323 323 322 323 322 322 321 321 320 320 320 320 319 319 318 317 316 316 315 314 315 313 312 311 310 307 297
299 299 298 298 298 299 300 301 302 303 303 303 304 305 310 313 315 316 317 317 319 320 320 322 322 322 323 323 323 323 322 321 321 321 321 320 320 320 320 320 320 321 321 321 322 322 322 318 323 324 324 324 323 323 324 325 325 325 325 324 324 323 322 321 321 321 321 321 320 320 319 319 319 317 316 316 315 315 314 314 313 313 312 309 306
297 298 299 299 299 299 300 300 301 301 301 302 303 304 307 310 313 315 316 317 318 319 320 321 322 323 323 322 323 323 322 322 322 321 321 320 320 320 320 320 320 320 320 320 320 321 321 321 322 322 324 324 323 323 323 323 324 324 324 323 323 323 322 321 321 320 320 319 318 318 318 318 318 317 316 315 314 314 315 314 314 313 311 312 311
299 299 299 300 301 301 301 300 299 299 300 300 301 300 302 307 310 311 314 315 316 317 318 318 320 321 322 322 322 323 322 322 322 321 320 320 320 320 320 319 320 320 320 320 320 319 319 320 320 321 322 323 323 323 323 322 322 323 323 322 322 322 321 320 320 319 320 319 318 317 316 317 317 317 316 315 315 314 314 314 314 313 312 313 313
299 299 300 300 300 299 297 296 297 296 296 297 298 300 301 303 306 309 311 313 313 315 317 318 319 320 320 321 321 322 322 322 322 321 320 320 320 319 320 321 319 319 320 318 318 319 318 319 319 318 320 321 322 322 322 322 322 321 322 322 321 321 320 320 318 317 317 317 317 317 317 317 315 314 312 310 311 312 311 313 313 313 312 310 310
297 298 299 300 297 296 295 294 294 294 296 296 297 296 297 299 303 307 309 311 313 314 315 317 318 319 319 320 321 322 322 322 321 321 320 320 320 320 319 318 317 319 318 318 318 318 316 317 318 319 319 320 321 322 321 321 320 320 320 321 321 319 318 318 317 316 314 314 314 313 313 313 313 314 314 313 313 311 310 310 309 308 308 305 305
297 297 298 297 297 297 296 295 296 296 297 296 295 296 298 298 299 302 306 309 312 313 315 316 317 317 318 320 320 320 321 320 320 320 319 319 319 319 318 317 317 316 314 317 317 315 315 315 317 317 318 318 319 319 320 320 320 320 319 319 320 319 318 317 317 317 317 316 315 315 316 315 313 312 313 312 309 309 309 310 309 308 308 308 307
294 295 295 296 294 292 292 294 296 296 296 297 297 296 296 297 298 299 301 305 307 309 310 311 314 315 316 317 318 318 318 317 317 318 318 318 319 318 316 315 316 313 311 312 314 315 314 314 315 315 316 316 317 317 318 319 320 319 319 319 318 318 318 318 317 317 317 316 316 315 315 315 312 311 310 308 307 308 308 307 307 307 308 309 309
294 294 295 293 291 292 296 296 296 297 296 296 296 296 296 297 296 297 299 300 301 303 305 308 310 312 312 313 314 315 315 315 315 316 316 317 316 315 310 312 311 310 311 309 309 311 312 313 314 314 315 315 315 316 318 319 319 319 319 319 318 317 316 316 316 315 308 313 312 311 309 308 307 307 307 307 306 306 307 308 308 307 306 307 304
293 293 292 295 296 294 293 293 295 295 295 295 294 294 295 296 297 296 297 296 297 295 300 303 305 307 309 309 311 311 313 314 314 315 315 315 312 309 309 308 310 313 309 309 311 309 311 312 312 314 314 314 315 316 317 318 318 318 318 318 317 316 315 314 314 313 313 312 312 312 311 309 307 307 308 307 306 305 305 304 304 304 303 301 299
294 293 293 291 291 295 296 295 295 295 293 295 295 295 294 294 295 294 294 295 294 294 297 300 301 303 307 307 309 310 312 312 312 313 311 308 307 307 307 309 307 310 309 308 307 309 307 310 310 311 312 313 314 315 317 317 317 317 317 316 316 316 316 315 315 315 316 315 314 313 313 312 311 310 309 308 307 306 306 306 306 306 303 299 298
291 291 292 294 295 295 294 295 294 295 294 293 294 294 295 295 295 295 293 292 294 292 295 297 299 300 303 306 307 307 307 309 309 308 308 308 307 306 307 306 304 307 307 307 307 308 307 307 309 309 311 310 312 313 315 315 316 316 316 316 315 314 314 314 312 312 311 311 311 311 311 310 310 310 309 308 307 307 306 305 305 303 300 298 297
292 294 294 294 294 294 294 293 293 292 292 293 293 293 292 292 293 293 291 293 292 292 294 295 296 298 301 302 299 298 299 302 301 302 302 303 303 303 302 302 302 304 304 306 307 307 305 305 303 306 307 308 311 312 313 313 313 312 312 313 312 309 307 306 307 308 309 309 308 308 307 307 306 299 299 301 302 301 305 303 301 299 297 296 296
293 293 293 293 293 293 292 291 291 292 293 293 293 293 293 293 294 293 292 292 289 292 293 293 295 298 296 294 295 294 297 295 297 300 301 300 301 300 301 301 302 302 302 301 302 303 306 307 307 306 306 308 310 310 303 302 304 311 310 311 310 309 308 308 307 305 303 305 307 307 307 298 297 296 296 297 298 298 299 304 304 299 297 296 294
293 293 292 292 292 292 291 290 291 291 292 293 294 295 293 292 293 292 292 291 290 292 292 293 295 294 291 291 293 294 295 297 299 299 299 300 301 300 301 301 301 301 301 300 303 304 304 306 308 307 305 304 304 304 298 300 300 301 305 305 306 306 305 304 303 304 304 300 300 299 299 298 296 294 296 295 296 297 297 297 298 297 297 298 294
293 292 291 291 291 292 292 293 293 293 292 292 293 293 289 293 293 292 291 288 290 292 293 293 292 290 291 292 292 293 295 296 297 299 299 300 299 300 301 301 300 298 299 297 300 305 304 303 304 304 304 302 301 297 299 300 300 300 299 305 304 303 303 303 301 301 301 298 298 299 298 300 298 298 299 298 295 294 295 295 295 294 295 295 297
294 292 291 291 292 293 294 294 293 293 293 293 293 290 293 294 292 292 288 289 291 291 291 292 291 291 291 292 291 294 295 295 297 299 299 299 300 300 300 300 300 298 295 299 303 301 300 297 301 301 299 297 295 296 297 298 298 299 298 298 301 301 301 301 300 299 298 297 295 295 295 295 298 292 292 296 295 295 292 293 294 293 293 294 296
294 293 294 294 293 293 294 294 294 293 293 294 290 293 294 291 289 288 289 290 291 290 291 292 291 291 291 291 291 294 295 296 297 297 298 299 299 301 298 297 296 294 298 297 294 296 294 296 297 298 297 294 294 294 296 296 296 296 297 297 299 300 299 300 298 297 296 295 294 294 294 294 293 292 292 293 294 294 293 293 293 293 294 292 293
293 293 293 293 293 293 293 292 292 292 291 289 290 291 289 288 288 289 289 291 291 291 290 291 290 290 289 290 292 294 296 295 295 296 296 297 297 296 295 294 295 296 296 296 294 293 293 293 292 292 293 292 294 293 295 295 296 296 296 295 297 297 297 295 296 294 295 295 295 296 294 295 293 292 292 293 293 293 292 292 292 292 292 292 292
294 294 295 293 292 293 294 294 294 292 292 290 292 290 289 289 287 290 288 291 291 292 292 290 290 289 291 292 293 294 295 294 294 294 295 295 294 295 295 292 292 291 291 291 290 292 292 292 291 292 293 294 291 293 294 294 295 295 296 294 294 295 293 293 293 293 293 293 292 292 292 292 292 292 291 292 293 292 291 290 289 290 289 289 289
296 295 296 296 295 294 294 294 293 294 294 292 290 289 290 288 288 288 288 289 290 291 292 291 291 291 292 293 294 295 294 294 294 294 294 294 294 293 292 291 293 292 292 292 293 291 291 292 291 291 293 293 290 291 292 293 294 295 294 291 291 290 290 291 292 291 291 290 291 292 292 291 291 291 291 293 294 291 290 289 289 288 288 287 287
299 299 297 296 296 295 293 294 294 294 292 289 287 289 290 289 288 287 288 289 290 292 292 291 292 291 292 293 294 294 294 293 293 294 294 293 293 292 292 291 295 292 293 292 292 291 290 291 291 291 292 293 291 288 291 292 293 294 293 292 291 292 291 291 290 289 289 289 290 289 290 291 291 291 292 293 294 291 290 289 288 287 287 287 286
300 300 299 299 299 297 296 293 292 292 292 288 288 289 290 290 289 288 288 289 290 291 291 292 292 292 292 293 293 294 294 293 293 293 293 292 292 292 291 291 293 292 292 291 290 292 290 289 289 291 288 291 290 288 290 292 292 293 291 290 291 291 290 289 289 289 289 289 289 288 287 289 291 291 292 293 294 291 290 288 288 287 287 287 287
299 299 299 300 299 293 292 293 293 294 294 289 288 290 290 291 290 289 289 290 290 292 292 290 290 292 292 292 293 292 292 292 292 291 291 291 291 291 290 291 291 293 292 290 290 291 290 289 287 288 288 290 289 288 288 291 292 292 292 290 290 290 290 289 288 289 288 288 288 287 288 290 292 292 293 293 293 292 290 288 288 288 287 287 287
299 299 296 298 297 296 297 297 296 296 292 288 289 291 291 291 290 289 289 291 292 291 289 290 290 291 292 292 292 292 292 291 291 291 290 290 291 291 290 290 290 291 291 290 289 289 289 288 287 287 288 288 289 289 288 290 291 292 292 290 289 290 290 290 289 288 288 288 287 287 287 289 292 292 292 293 293 293 291 288 288 288 288 287 286
295 295 296 297 296 294 293 293 293 293 290 289 290 291 292 291 290 290 292 294 291 289 288 290 291 291 292 291 291 291 291 290 290 290 290 290 290 290 290 290 291 290 289 289 288 288 289 288 287 287 287 287 287 287 288 288 290 291 292 291 290 289 289 289 288 288 287 287 288 287 287 288 290 291 291 292 293 293 292 288 288 290 290 289 286
296 296 294 294 294 294 294 294 295 292 289 288 290 291 292 291 291 293 294 292 288 288 289 290 290 290 290 290 290 290 290 290 289 290 290 289 289 289 289 289 289 289 289 288 288 288 288 288 287 287 287 287 287 286 287 287 288 291 291 292 291 289 291 288 289 288 288 289 287 287 287 287 289 290 291 292 293 293 290 288 290 290 289 287 285
295 295 295 291 293 294 295 294 294 292 289 288 290 290 290 290 292 294 291 287 287 288 289 289 289 289 289 289 289 289 289 290 289 290 290 289 289 289 289 290 289 290 290 289 289 288 288 288 287 287 286 286 286 287 286 286 286 289 291 292 292 291 291 288 288 289 288 288 287 287 287 288 289 289 291 292 292 291 289 290 290 289 288 285 284
295 296 292 289 292 293 293 293 292 289 286 287 289 290 290 290 292 291 289 288 288 287 288 288 288 288 289 289 289 289 289 289 289 290 290 290 289 288 289 289 289 290 290 290 289 288 289 289 289 288 287 286 286 286 286 286 286 287 290 291 292 291 291 290 288 287 287 288 288 288 288 288 288 289 290 291 291 290 290 290 289 287 285 283 283
292 292 291 291 290 289 289 290 291 289 288 287 288 289 290 291 292 289 289 288 287 287 287 288 288 288 288 288 288 289 289 289 289 290 291 291 290 289 291 289 290 291 290 290 289 289 289 289 289 288 287 286 286 286 286 286 286 286 287 289 290 290 288 288 288 288 287 288 289 289 288 288 288 288 288 288 287 288 288 288 287 285 284 283 282
292 292 291 290 289 289 289 289 290 291 289 288 288 288 290 292 289 288 287 287 287 287 287 287 287 288 288 288 288 289 289 289 289 290 291 291 290 290 290 289 291 291 291 291 289 289 289 289 289 288 287 286 286 286 286 286 286 286 287 288 289 288 287 287 287 287 286 287 287 287 287 287 287 287 287 287 286 286 286 286 285 284 283 282 282
291 291 289 289 289 289 290 290 290 292 290 288 288 288 289 289 287 286 287 287 287 287 287 287 287 288 288 288 289 288 288 289 289 290 290 290 290 290 291 291 291 292 291 291 290 289 290 290 289 288 286 286 286 286 286 286 286 287 287 288 288 287 287 287 287 286 286 286 286 286 286 286 286 286 286 286 286 286 286 285 284 283 282 282 281
290 289 288 290 290 289 290 290 291 292 290 288 287 288 288 287 286 286 287 287 287 287 287 287 287 288 288 288 289 289 289 289 289 289 290 289 290 290 291 290 290 290 291 292 291 291 289 289 289 288 287 286 286 286 286 287 287 288 287 287 287 287 287 287 287 287 286 286 286 286 285 285 286 285 285 285 285 285 284 284 283 282 281 281 280
289 288 286 288 288 289 289 289 290 290 288 288 287 286 284 284 284 285 287 288 287 287 286 286 287 287 288 288 288 288 289 289 289 289 288 287 287 288 289 289 288 287 288 289 290 289 289 289 289 288 289 288 288 288 287 287 287 287 288 288 288 288 288 287 287 288 286 285 285 285 285 285 285 285 284 284 284 284 283 283 282 282 280 280 279
288 285 285 285 288 288 287 288 288 287 285 285 284 282 280 281 283 285 286 287 287 286 286 286 287 287 288 288 288 288 289 289 289 289 288 287 286 286 287 288 288 287 287 288 289 288 289 289 289 287 287 289 288 288 288 287 287 287 288 288 288 288 288 288 289 287 286 285 285 284 284 284 284 285 284 284 283 283 283 282 281 281 280 279 279
Wind_Speed
12 13 12 12 14 14 13 12 12 12 13 13 14 14 15 14 13 16 14 13 12 12 11 12 12 11 9 12 14 12 11 10 10 10 11 11 11 11 10 9 9 10 10 10 10 9 9 8 9 9 9 10 10 11 10 10 10 9 8 7 9 9 8 6 5 5 5 4 4 5 6 6 7 6 7 7 6 6 4 6 5 5 5 6 6
6 6 7 8 10 11 11 11 10 12 12 13 16 17 16 16 15 15 11 13 14 15 14 13 13 14 14 15 13 11 11 12 13 11 12 10 11 11 11 10 10 10 10 10 10 11 10 10 10 10 10 10 10 9 9 9 9 9 7 7 7 10 9 7 7 6 5 7 5 3 5 6 6 5 7 6 5 4 5 6 5 6 6 5 5
8 10 7 10 11 13 12 12 12 16 16 17 18 16 16 15 15 14 13 14 14 15 13 14 13 13 13 10 11 9 8 9 8 8 7 9 11 12 11 11 11 11 11 11 11 11 12 11 11 10 10 10 9 10 10 11 10 12 11 11 8 6 7 6 9 11 7 4 2 0 4 2 5 4 5 5 4 5 5 5 6 6 8 7 6
13 13 13 12 12 13 12 13 14 12 12 12 13 16 15 15 15 15 15 14 13 14 15 15 13 11 9 5 6 8 7 6 6 5 8 10 12 12 11 12 13 12 12 12 11 11 12 12 10 10 11 10 11 11 11 12 11 11 11 12 9 8 8 9 8 10 7 8 3 8 3 2 5 7 7 4 3 5 7 7 6 7 6 5 5
15 13 10 9 10 13 14 15 13 13 14 15 16 16 14 18 18 17 16 16 15 14 16 12 9 8 7 4 4 4 2 6 7 9 12 13 12 12 15 13 12 13 13 13 12 13 12 11 11 11 11 11 10 12 12 14 13 12 13 12 13 12 10 7 7 9 11 10 7 4 1 2 7 2 0 5 1 3 5 4 6 6 7 7 7
16 16 14 12 13 12 12 13 13 14 16 16 15 17 15 15 16 15 14 13 15 15 15 11 11 12 10 10 10 11 12 11 14 18 16 15 18 13 9 12 13 13 13 13 14 12 13 13 12 12 12 11 12 12 12 11 13 13 14 13 13 13 10 8 8 6 11 12 11 9 5 6 4 3 2 4 2 2 2 4 5 6 7 7 5
14 13 9 8 11 11 13 14 16 16 17 14 13 14 16 15 15 16 15 14 14 14 14 12 12 11 14 15 15 15 16 14 14 12 10 11 8 10 12 11 13 14 14 13 13 14 13 12 13 13 12 12 11 11 13 14 12 13 11 12 13 11 9 10 12 9 4 8 10 11 4 1 6 6 5 2 3 2 2 4 4 4 5 6 7
15 14 13 11 12 15 17 17 15 17 16 13 14 14 16 16 15 16 14 14 13 12 14 15 14 14 14 15 14 15 15 15 13 12 8 6 10 12 10 11 12 13 13 13 14 14 13 13 13 13 13 13 12 13 13 12 10 10 12 13 11 10 12 13 11 8 11 10 9 11 10 4 3 3 6 8 5 3 3 1 2 4 3 5 6
13 12 13 15 17 17 16 14 15 15 13 13 14 14 14 14 15 14 15 14 13 15 15 15 15 15 15 14 14 13 12 11 7 7 9 8 10 10 11 11 11 13 13 13 13 14 13 13 13 14 14 14 12 12 11 12 13 12 12 11 13 12 11 12 10 11 11 11 7 10 8 9 6 4 2 5 6 5 5 7 6 2 3 5 5
10 14 15 16 17 15 13 13 11 12 11 12 12 11 12 12 14 15 16 14 13 14 15 16 17 15 15 15 17 14 11 10 8 9 9 8 11 11 11 11 11 11 12 12 13 13 13 13 13 15 14 13 11 13 12 12 12 12 13 13 13 13 11 11 13 11 9 9 9 7 9 8 7 6 4 3 3 4 7 6 8 9 10 9 6
12 13 15 15 12 11 9 11 12 8 8 9 10 11 11 12 14 16 17 14 14 16 16 18 16 16 16 17 18 17 15 13 11 10 9 10 12 12 12 12 10 11 11 12 13 13 13 13 13 14 12 12 12 13 13 13 13 12 11 11 12 14 11 11 11 11 8 8 9 9 10 11 12 11 10 7 8 5 4 5 5 10 11 8 8
13 12 12 10 7 8 6 9 10 10 8 10 10 10 11 12 13 16 15 15 13 14 15 16 15 17 17 17 17 17 16 14 15 15 14 14 13 12 11 9 11 11 10 11 13 14 13 13 13 13 13 13 14 13 13 12 11 10 10 10 11 12 11 10 10 12 12 9 10 10 10 9 9 10 9 9 10 11 9 7 6 3 5 5 1
9 10 10 8 9 10 8 11 10 9 11 13 14 13 13 13 14 16 17 15 15 15 16 17 17 17 17 17 17 15 16 16 15 15 14 13 12 12 11 12 11 10 13 13 14 15 13 13 13 13 13 14 14 12 12 11 10 10 10 11 11 12 11 11 11 13 12 12 10 9 9 9 11 10 8 9 8 8 8 9 5 5 7 6 5
9 8 8 8 8 8 10 11 11 11 11 13 14 14 13 13 14 16 18 15 15 15 16 17 19 18 17 17 17 15 16 16 15 15 14 13 12 12 12 13 13 14 14 15 14 12 12 14 13 13 13 12 12 13 12 11 11 11 11 11 12 11 10 12 14 14 12 14 10 9 10 10 11 9 10 8 9 8 9 10 4 4 5 6 2
6 6 7 9 10 10 11 12 11 10 10 12 12 13 13 13 13 16 16 15 15 16 15 18 17 18 17 16 16 14 15 14 14 14 13 13 11 12 13 12 12 13 13 13 10 12 13 12 13 13 13 13 12 12 12 12 12 11 11 13 12 11 12 12 13 14 13 13 12 12 10 11 11 10 9 10 9 11 10 9 8 6 4 3 5
5 6 8 9 10 9 8 8 9 10 11 11 12 12 12 14 14 16 18 17 17 17 17 17 17 15 16 16 17 16 14 13 12 12 11 12 13 13 13 13 12 12 10 10 11 11 12 13 13 14 13 12 12 13 13 11 11 11 12 12 14 10 11 13 13 12 14 14 14 13 11 12 10 10 10 10 10 10 9 7 9 10 10 8 3
6 7 7 8 6 7 9 9 9 10 9 11 13 13 14 15 14 15 16 15 15 17 17 16 15 14 16 17 16 16 16 16 15 15 15 14 13 12 12 13 12 11 11 9 11 11 12 13 13 14 13 13 12 13 12 12 11 11 12 12 13 11 11 12 10 11 11 12 12 13 13 11 10 10 9 9 9 8 8 8 9 11 10 10 5
7 7 7 7 6 7 8 9 10 11 11 11 12 12 12 14 14 16 16 17 16 15 15 14 15 15 15 16 17 17 16 16 15 15 14 13 12 11 11 11 13 13 10 9 10 11 11 12 13 13 13 13 13 12 12 12 11 11 12 12 11 9 10 10 11 11 12 10 11 11 11 11 9 9 10 10 9 9 9 9 9 9 9 11 9
5 7 8 8 8 9 10 11 9 8 7 8 9 8 8 9 11 13 16 17 17 14 14 14 14 13 13 15 16 16 15 15 14 14 13 12 14 13 14 14 11 10 11 11 11 11 11 11 11 12 11 13 12 12 12 11 11 11 11 11 10 9 10 11 10 10 11 10 10 11 9 11 9 8 7 8 8 9 10 9 9 8 9 12 11
7 7 8 9 10 11 12 9 8 8 9 9 9 6 8 11 10 10 10 10 10 11 11 13 14 13 13 12 13 14 14 15 15 15 14 14 15 14 14 12 14 10 10 11 10 11 10 11 10 10 11 11 11 12 11 12 11 12 11 10 10 9 10 11 10 9 9 9 10 11 10 9 8 9 11 12 13 13 11 10 10 10 11 12 12
8 9 9 10 11 9 7 6 7 6 5 5 6 9 10 7 8 10 12 12 11 12 12 12 11 12 13 14 14 14 16 15 15 15 15 15 14 12 12 13 8 11 12 10 11 11 10 10 10 10 11 11 11 11 10 10 12 12 11 11 10 11 12 11 9 9 8 9 10 12 13 12 9 8 5 4 5 6 8 9 10 10 11 9 10
8 8 8 9 7 7 6 5 5 5 7 8 8 5 6 8 10 9 8 9 11 12 11 12 11 11 14 15 15 14 14 14 15 15 15 14 13 13 13 9 10 13 9 11 11 9 8 9 10 10 10 11 11 11 11 10 11 12 12 10 10 10 10 10 9 9 7 7 7 7 5 4 5 8 8 9 9 9 10 10 9 9 8 6 5
7 8 8 8 7 7 6 6 7 8 9 7 6 7 9 8 7 7 9 11 11 11 10 10 10 11 13 14 13 12 12 13 14 13 13 13 13 12 10 11 12 10 7 10 10 8 8 9 10 10 10 10 11 11 10 11 12 12 12 10 10 10 10 11 11 11 11 10 10 11 12 11 8 9 10 9 7 7 7 10 11 9 10 9 9
5 5 6 7 6 5 4 6 7 8 8 10 9 7 7 7 8 7 10 12 10 8 8 8 9 11 12 11 12 12 12 12 12 12 13 13 13 12 9 10 11 7 8 8 7 8 8 10 10 10 10 10 10 10 10 11 12 11 11 12 11 10 11 11 12 12 12 12 13 13 14 13 12 12 10 8 6 7 7 6 6 6 10 13 12
5 6 7 5 4 5 7 7 7 7 6 6 6 6 6 8 6 8 10 9 7 6 7 8 9 11 11 11 12 11 12 12 13 12 14 14 13 11 8 10 8 8 8 7 7 8 9 10 11 11 11 11 10 10 11 11 11 10 11 12 12 11 11 11 10 10 9 9 10 9 6 5 6 7 6 6 7 9 9 10 12 10 9 8 7
6 6 4 5 7 5 6 7 7 7 7 7 6 6 6 6 8 7 8 7 7 5 7 8 8 10 11 12 12 11 13 14 14 13 13 13 10 8 8 7 8 10 8 8 10 9 10 11 11 11 10 10 10 11 11 11 11 11 9 9 10 9 8 8 8 8 7 7 7 8 8 7 6 8 9 9 9 10 8 8 9 9 9 7 7
9 7 6 3 4 9 10 7 7 7 7 7 7 8 7 8 9 7 7 7 7 7 7 8 9 10 10 12 12 13 13 12 12 12 9 7 8 8 8 9 8 9 9 9 8 9 9 9 10 9 10 10 10 9 10 10 9 9 10 8 8 11 12 11 11 11 11 11 11 11 10 10 11 11 11 11 10 9 9 12 12 11 9 8 8
4 4 5 9 11 8 7 10 9 10 9 8 9 9 9 9 11 8 6 7 7 7 8 9 9 10 11 13 12 10 9 10 9 8 8 9 8 8 9 7 7 9 9 9 10 10 9 9 9 9 9 8 8 8 8 8 8 9 10 11 9 7 7 8 8 8 7 7 8 9 10 10 11 11 11 10 11 12 10 10 9 8 7 9 9
4 7 9 9 10 10 9 9 10 7 9 11 10 10 8 8 8 7 5 9 7 7 8 8 8 10 12 11 6 6 6 7 6 6 7 7 7 6 6 7 7 8 8 9 9 9 8 7 6 6 7 7 8 8 7 8 7 6 6 6 7 6 5 4 5 5 6 7 7 7 6 6 7 10 12 12 11 10 9 9 8 7 7 7 7
8 9 9 9 10 9 9 7 7 9 11 10 10 10 10 10 10 8 8 7 5 8 7 7 9 11 8 6 6 6 6 5 5 7 7 6 7 6 7 7 7 7 7 7 6 6 7 8 8 7 7 7 7 6 8 12 11 8 6 5 6 7 7 7 7 6 6 6 6 6 8 12 14 15 15 14 13 13 14 12 10 9 9 9 8
9 9 9 9 7 6 6 7 9 10 12 12 11 10 7 7 9 8 8 6 6 7 8 8 10 7 5 5 6 6 5 6 6 6 6 6 7 6 6 6 6 6 7 7 7 8 7 7 8 8 7 6 5 5 8 8 8 8 5 4 5 6 5 5 5 6 7 6 5 5 4 6 8 9 9 12 13 14 15 16 14 14 13 14 10
9 9 8 8 8 7 9 11 12 11 10 9 10 9 5 10 9 8 7 5 7 8 9 9 8 5 6 6 6 6 6 6 6 7 7 6 6 6 6 7 7 6 6 5 6 7 7 6 7 6 7 6 5 7 9 9 10 10 10 6 5 5 6 6 6 6 5 5 6 6 5 5 6 7 7 7 9 12 13 14 12 13 14 16 17
10 10 10 8 8 10 12 13 10 11 10 11 9 5 10 12 8 7 5 7 8 8 7 7 6 7 7 6 6 7 7 7 7 6 6 7 7 7 7 7 8 6 6 7 7 7 7 6 7 7 5 5 5 8 9 9 9 9 9 7 4 4 4 4 4 5 5 6 5 5 6 5 6 9 7 6 6 7 10 13 13 14 15 17 17
9 8 9 10 10 10 11 12 11 8 8 8 6 11 10 4 5 4 7 7 7 7 7 8 7 7 7 6 7 7 7 7 7 7 7 8 8 9 7 6 6 6 7 6 5 6 5 5 6 5 5 4 4 6 7 7 6 5 5 5 3 3 4 5 6 6 5 6 7 7 6 6 5 5 5 6 6 6 6 6 7 7 9 12 14
11 11 12 13 13 11 11 10 10 11 8 6 7 8 5 4 5 6 6 7 7 7 8 8 7 6 6 6 7 7 8 7 7 7 7 7 8 6 7 7 7 8 8 8 7 5 5 5 5 4 4 4 5 5 6 7 6 7 7 6 5 5 5 5 6 5 6 6 6 6 5 6 4 5 5 6 6 6 5 6 6 7 7 6 6
12 13 13 12 12 14 15 15 10 7 9 8 10 6 7 6 4 6 6 7 7 8 8 7 7 7 8 8 8 8 8 7 7 7 8 8 7 8 8 6 5 4 4 4 4 5 6 5 4 5 5 6 4 8 8 8 8 7 7 3 3 4 4 4 4 4 4 4 4 4 4 4 4 4 6 9 9 5 5 5 6 5 3 2 2
13 13 15 14 14 13 13 10 9 10 10 11 7 7 8 6 6 6 5 6 6 8 9 9 9 9 9 9 9 9 8 9 8 9 9 8 8 8 6 5 6 6 6 6 7 5 6 7 7 7 7 5 5 6 7 7 7 8 6 3 3 3 4 4 5 4 4 3 3 4 4 4 4 5 6 9 10 8 5 5 5 4 3 2 2
16 14 13 13 12 11 11 11 13 13 9 4 5 6 7 8 7 6 6 7 8 11 10 9 11 10 10 9 9 9 10 10 9 11 10 8 6 5 6 6 8 8 7 7 6 6 5 5 6 6 6 6 5 6 8 7 8 8 7 6 4 4 4 4 4 3 2 3 3 5 5 4 5 5 6 10 11 9 7 7 6 6 6 5 4
16 15 14 16 18 16 14 11 9 9 10 7 7 7 7 8 8 8 7 7 11 12 10 13 12 9 9 9 9 9 10 10 10 10 9 10 9 8 6 6 6 7 6 5 5 6 4 4 5 6 7 6 4 5 6 6 7 8 5 3 4 3 4 3 3 2 0 0 1 3 6 6 6 6 9 11 13 11 7 7 7 7 8 8 8
15 15 16 17 14 7 7 9 10 14 13 8 7 8 9 9 9 8 9 12 14 16 13 6 5 8 9 9 9 10 10 11 11 8 8 8 6 6 7 7 6 6 6 5 5 5 6 4 3 4 5 5 5 4 4 6 7 7 8 5 3 4 4 4 3 3 2 1 1 2 3 7 8 7 8 10 11 12 7 5 6 7 7 11 4
17 17 17 14 13 11 13 15 14 14 9 6 8 9 10 9 8 9 13 16 16 9 6 8 7 8 9 10 9 10 11 9 8 8 7 6 7 8 7 7 7 6 6 6 6 5 5 5 4 4 5 4 5 6 5 7 7 8 9 8 4 5 4 4 3 3 3 3 3 4 3 4 6 6 7 9 10 12 8 6 7 8 5 3 9
9 12 11 10 10 8 11 11 10 10 6 8 9 11 11 9 9 13 17 16 8 7 7 8 10 11 9 9 10 8 8 8 8 8 9 8 6 6 7 7 6 6 8 8 6 6 5 5 3 3 4 4 4 5 4 6 6 7 8 9 4 4 4 4 3 2 2 3 4 3 3 4 6 7 7 8 10 10 10 5 4 6 10 13 9
13 12 12 10 10 11 13 15 13 10 7 7 9 11 11 9 13 17 14 9 7 7 9 9 9 10 11 10 9 10 10 8 9 9 10 9 8 8 8 7 8 8 8 8 7 7 6 6 5 3 3 3 3 3 6 4 5 6 7 9 7 4 6 5 5 5 5 5 3 3 3 5 7 8 8 10 11 12 10 6 10 11 12 13 11
14 12 10 6 10 11 12 11 11 9 7 8 11 12 11 12 17 15 7 5 7 8 8 9 9 9 9 10 10 10 9 8 10 10 9 9 9 8 8 8 8 8 8 8 7 7 6 7 7 5 3 3 3 3 4 5 4 7 7 9 9 8 9 5 4 3 3 3 3 3 4 6 7 8 9 10 10 11 8 12 12 13 14 12 8
15 15 8 5 10 13 12 11 9 6 5 7 9 12 13 14 14 7 9 10 10 10 10 10 10 9 9 8 8 9 10 10 10 11 11 10 10 9 10 8 8 8 8 8 7 7 8 7 7 7 5 4 2 3 3 4 5 6 7 8 10 9 9 8 4 3 3 4 5 6 7 8 8 9 10 10 8 10 12 12 12 13 11 6 6
10 11 10 9 8 7 7 10 12 8 8 8 10 11 14 15 10 10 10 8 9 10 11 12 10 9 9 8 9 7 7 9 11 10 10 9 11 11 10 9 8 8 8 8 8 8 7 7 7 5 6 5 5 4 4 3 4 4 5 7 9 10 9 10 7 5 6 6 6 6 7 6 6 5 4 3 3 4 9 10 11 10 5 5 6
12 14 9 7 8 9 10 10 12 11 10 10 12 13 16 13 9 9 9 10 10 11 10 9 10 9 8 9 11 9 8 7 8 8 8 8 8 9 9 9 9 10 9 9 9 8 8 7 8 7 6 6 6 5 4 4 3 4 4 5 6 7 8 8 4 2 3 2 2 3 3 4 3 6 5 5 5 6 7 7 7 6 5 6 6
11 10 6 7 8 9 11 11 13 15 10 10 10 13 14 11 7 8 10 10 11 11 12 12 12 10 9 10 10 11 11 8 8 8 8 9 9 9 10 12 13 12 12 11 10 10 10 10 9 8 7 6 6 5 5 6 5 5 5 5 5 5 5 5 5 3 3 2 3 3 3 2 3 4 4 4 4 5 5 6 6 5 5 4 4
9 9 7 9 9 10 12 12 14 13 8 8 11 12 10 10 9 10 12 13 13 12 11 10 10 9 9 9 9 9 9 9 8 7 5 4 6 8 8 5 2 2 5 8 9 8 6 5 6 8 9 8 6 7 7 7 7 8 8 7 6 6 5 5 6 8 5 4 4 3 3 3 4 5 5 5 5 5 5 5 5 5 4 5 5
10 7 6 8 10 11 12 12 14 11 7 9 10 10 7 7 6 7 10 13 12 11 10 10 10 10 9 10 9 9 9 9 9 8 7 4 4 4 3 4 4 4 8 8 7 4 5 6 6 5 5 7 7 5 7 11 10 11 10 10 8 8 8 6 8 11 7 4 3 4 4 5 5 5 6 6 6 6 6 6 5 5 5 5 6
9 6 8 9 11 10 10 12 14 9 8 8 8 6 6 6 8 9 10 10 9 9 8 9 10 10 12 12 10 10 10 9 9 9 8 8 6 3 4 9 9 7 8 10 11 12 13 11 8 5 3 9 8 9 11 11 11 11 10 10 9 9 10 10 11 8 4 4 4 4 4 4 4 4 5 5 5 5 6 6 5 5 4 5 5
Wind_Direction
227 222 220 215 213 211 211 206 205 202 202 199 199 202 202 202 197 205 201 195 191 191 193 193 196 198 203 205 211 204 204 201 206 208 208 210 205 205 200 201 201 205 206 198 201 197 198 197 200 202 200 201 204 212 209 210 209 207 211 204 206 216 230 213 215 180 201 258 259 264 271 243 235 233 234 229 220 214 190 181 172 161 169 168 175
253 248 232 224 219 217 211 209 203 200 207 199 202 203 201 201 201 207 196 198 198 196 195 196 198 198 198 206 204 200 197 199 208 206 209 208 207 208 207 204 203 204 204 204 202 199 199 201 202 204 201 207 210 210 208 208 206 208 202 215 217 212 223 195 201 147 221 212 218 273 275 272 241 238 244 243 218 200 187 181 169 169 170 174 166
234 239 228 220 215 212 207 209 207 207 202 199 204 201 202 202 205 202 199 200 203 199 195 201 200 203 201 206 198 207 211 211 214 211 209 212 213 211 208 207 205 207 203 204 205 204 206 203 206 203 206 203 206 210 208 209 206 207 202 207 211 226 226 207 196 191 205 170 146 360 259 263 296 279 248 241 216 199 187 187 179 178 178 173 169
239 229 222 218 212 211 209 210 211 207 206 209 207 204 203 205 204 200 200 201 204 204 205 206 202 201 206 197 198 202 205 199 205 203 210 216 220 212 214 209 206 209 204 205 210 209 207 209 205 206 208 204 205 207 207 212 206 208 207 211 200 213 212 223 202 199 185 134 203 215 214 156 294 246 229 250 199 194 187 195 180 187 175 163 159
239 236 229 220 218 215 209 212 207 206 208 208 204 204 205 205 203 200 200 200 202 202 204 201 188 190 189 163 153 185 135 178 193 216 212 212 214 211 214 204 206 210 207 208 209 213 210 211 209 210 210 208 207 211 210 211 206 207 204 205 204 208 212 214 212 197 204 199 169 127 122 199 229 249 126 272 142 179 222 197 200 180 174 176 178
238 236 225 213 216 217 216 214 209 211 212 211 205 208 206 207 204 203 204 203 203 202 200 192 195 191 181 185 189 196 207 195 201 210 207 204 210 210 206 204 207 210 209 209 209 209 212 210 210 211 213 210 209 214 215 211 211 208 207 206 211 211 210 202 218 211 212 209 211 208 155 181 183 220 119 265 341 229 188 200 203 196 184 177 183
243 246 237 215 221 218 219 212 210 212 217 207 207 210 209 208 204 202 202 204 203 199 189 190 198 199 198 200 202 202 208 213 215 220 213 214 205 204 208 204 208 208 211 210 209 209 211 209 210 212 214 214 211 214 217 214 211 211 205 209 213 206 203 216 213 207 206 236 223 225 221 129 148 126 209 59 319 294 187 191 223 212 197 184 181
238 236 231 224 217 211 218 215 212 215 213 203 208 208 207 208 203 203 205 205 201 196 190 192 197 200 203 207 210 213 213 218 211 217 213 199 204 210 204 208 208 211 211 211 211 209 210 212 210 213 215 215 211 216 219 217 215 214 210 213 212 207 205 215 216 195 195 220 207 223 231 208 208 162 148 172 175 186 245 259 249 200 207 214 194
231 232 228 223 223 220 220 218 218 218 211 205 208 206 206 207 207 205 207 204 201 194 194 195 199 199 203 206 214 219 220 225 214 210 210 204 208 209 209 211 210 213 214 213 211 212 209 213 211 215 216 216 214 220 221 218 216 213 210 210 213 214 213 217 216 213 206 218 172 223 221 230 226 230 189 167 183 205 252 199 204 152 221 232 218
227 228 229 227 228 226 221 224 225 218 212 211 211 206 206 206 207 205 209 204 200 197 197 199 200 200 205 208 213 215 214 219 207 207 206 200 213 210 211 212 211 212 215 215 215 213 212 211 214 217 218 218 216 222 221 220 220 217 215 213 214 217 216 215 219 221 214 214 201 188 205 216 229 240 221 204 262 209 221 200 194 189 210 221 193
234 229 232 232 230 229 224 223 227 220 214 208 208 206 207 206 207 209 211 205 199 199 197 201 200 202 208 208 211 213 211 212 213 216 205 204 212 213 210 213 209 213 210 216 217 213 213 211 214 217 217 217 218 220 220 220 219 219 219 218 218 218 218 218 223 230 221 213 208 199 206 201 207 215 217 206 204 220 237 234 197 203 211 209 214
235 236 238 233 239 234 220 228 226 218 207 207 209 208 209 209 208 212 214 208 203 201 200 204 202 206 210 210 212 213 209 211 213 216 211 211 213 214 212 211 214 214 211 216 217 213 212 214 213 215 217 217 219 220 222 221 220 219 220 220 223 222 224 220 221 225 222 219 216 211 215 211 217 219 217 205 206 225 206 220 197 187 246 233 199
236 233 237 235 225 225 221 229 226 214 208 205 206 206 209 209 208 211 215 208 206 200 201 203 204 208 208 210 213 212 212 213 214 218 215 215 214 213 206 212 214 211 215 214 218 210 210 214 213 213 218 219 221 219 223 221 219 219 221 223 224 222 220 220 224 225 219 221 219 216 218 214 219 219 207 203 213 212 202 227 214 176 200 202 210
230 225 229 235 229 227 224 227 223 217 212 207 208 208 208 209 209 212 218 208 207 203 205 205 208 209 207 210 212 210 213 213 216 217 217 216 215 214 212 212 212 215 215 216 216 207 212 218 216 219 221 222 220 222 222 218 217 219 221 225 226 226 222 222 228 228 223 223 218 214 216 218 223 214 212 202 204 195 214 219 184 215 208 213 142
225 229 226 228 229 224 225 224 225 217 210 210 210 210 209 211 210 213 220 214 209 209 207 209 211 210 209 210 212 211 213 215 217 217 216 215 215 216 218 217 217 219 217 221 208 208 214 217 219 222 222 221 220 221 222 220 217 219 222 226 227 225 223 223 228 226 227 224 219 219 217 221 224 215 209 214 206 208 208 200 180 206 241 208 214
219 233 243 241 234 234 233 231 226 220 215 211 211 210 208 213 211 212 215 214 209 210 211 211 213 210 209 210 212 212 214 216 219 219 220 215 216 216 220 219 221 222 221 216 212 207 212 214 217 222 223 222 222 222 221 220 218 217 223 225 228 222 226 225 230 226 228 223 222 220 221 225 222 220 214 216 210 209 209 192 192 205 220 244 199
223 227 234 243 249 242 231 227 225 221 217 212 211 207 207 209 210 215 219 219 215 214 214 212 212 209 210 211 211 212 213 213 215 216 216 216 217 218 220 222 223 223 222 212 213 209 212 212 215 219 219 221 222 223 223 222 219 220 224 227 229 223 223 228 227 228 229 225 226 222 223 225 219 217 218 218 215 212 214 207 198 207 211 235 222
219 228 229 231 234 236 234 231 226 218 214 216 217 211 211 210 208 211 216 217 218 214 215 214 213 213 214 213 213 213 213 215 216 217 216 216 216 219 221 223 221 221 218 215 210 212 212 210 214 216 216 216 219 221 222 224 222 225 228 229 229 221 224 227 226 227 229 226 227 227 226 231 219 210 214 211 211 211 210 210 210 217 207 220 225
216 231 237 241 239 237 230 227 228 228 227 226 229 221 219 219 218 215 217 216 215 211 212 214 212 213 213 213 212 213 215 217 218 219 218 215 217 217 218 222 225 220 217 216 213 214 211 210 212 215 213 215 216 219 219 222 222 229 230 232 227 221 222 225 224 221 227 226 229 231 226 229 216 214 213 219 217 211 213 208 214 214 217 223 229
228 233 234 235 239 235 230 225 226 222 223 223 223 217 218 220 217 221 229 228 224 220 215 215 214 214 215 213 215 215 215 216 216 215 216 216 217 218 219 221 222 215 218 215 215 215 210 209 208 211 213 214 213 216 213 218 220 227 229 228 225 218 222 226 226 219 222 220 223 228 227 231 227 226 217 209 204 204 204 208 209 208 215 222 226
230 232 237 239 241 244 244 239 239 244 241 235 219 215 220 216 217 217 215 219 217 217 213 216 213 215 215 213 213 211 214 214 217 217 219 219 221 219 218 221 215 217 215 212 216 214 208 207 205 207 211 211 211 212 210 212 217 224 225 225 223 219 223 227 225 225 221 222 224 225 221 216 204 219 226 223 223 213 210 216 217 220 225 221 221
226 230 232 243 249 253 251 247 247 241 242 234 228 218 226 218 218 219 219 221 219 219 212 214 211 213 213 216 216 214 214 214 216 217 218 220 221 219 220 216 212 222 206 214 216 211 203 201 206 208 209 211 209 210 207 209 216 221 223 220 221 217 220 223 218 223 212 213 212 226 239 232 212 218 212 219 213 207 207 216 217 210 215 212 204
223 228 239 242 240 239 237 233 233 230 238 236 232 218 223 220 216 218 213 225 219 219 212 209 211 212 217 218 216 217 214 214 216 218 220 219 222 222 215 212 217 218 201 210 212 202 200 201 208 209 207 209 209 210 207 209 215 217 220 219 219 217 219 221 221 222 219 217 224 232 241 243 236 239 239 236 224 224 216 214 208 199 204 204 205
244 243 254 253 256 268 274 258 247 242 238 235 228 224 225 223 219 214 217 225 222 220 211 205 212 217 218 216 215 216 213 213 215 216 218 218 220 220 210 211 216 202 200 208 200 200 199 203 209 210 209 209 209 208 208 210 214 214 217 218 217 219 220 222 223 226 225 222 225 229 232 229 224 223 214 204 202 200 195 204 218 216 215 213 213
251 237 235 245 256 250 239 237 239 242 245 245 235 227 222 226 216 218 225 227 224 215 206 210 208 215 215 214 217 213 212 213 214 213 217 218 219 215 200 206 200 198 202 193 204 201 201 204 210 210 209 210 209 206 208 211 213 212 213 215 215 215 218 221 224 226 225 225 227 224 211 189 191 213 217 216 204 210 210 211 215 214 215 223 220
218 228 244 230 229 243 253 247 246 245 240 242 240 235 234 236 233 221 224 225 223 205 213 213 213 213 216 213 216 211 213 214 213 214 216 217 212 202 197 200 192 202 198 198 199 201 202 207 209 210 208 208 206 206 208 209 210 210 213 215 215 213 219 223 218 209 208 207 211 214 216 213 205 210 221 222 215 216 217 220 223 216 209 202 207
208 211 226 280 288 247 238 247 242 246 243 241 240 241 234 232 241 233 227 221 217 201 211 212 215 216 218 217 214 213 212 213 212 215 213 205 201 197 191 200 195 198 195 200 203 202 208 205 207 204 206 205 206 205 208 209 209 209 213 217 220 218 211 209 211 213 216 220 221 221 221 219 222 221 224 223 221 224 218 222 221 221 208 198 203
248 258 242 228 234 243 244 241 240 241 242 248 245 243 241 232 238 233 222 223 215 201 211 214 212 216 220 221 218 214 211 213 213 209 204 203 198 195 199 194 183 197 199 198 198 200 204 201 203 200 202 197 198 201 205 205 206 209 214 219 218 219 226 230 229 224 221 225 228 229 228 226 224 226 222 219 207 214 214 222 224 220 203 196 200
233 236 231 230 232 235 238 239 240 245 246 243 244 247 245 250 246 242 218 225 208 199 213 213 212 217 222 221 211 211 212 214 209 202 204 202 198 196 191 187 190 198 197 199 197 195 188 195 195 193 193 191 193 199 196 198 204 216 218 217 214 212 218 232 235 226 219 212 210 218 228 231 218 219 220 222 218 209 198 211 213 195 197 201 204
236 238 237 233 234 242 243 242 244 236 240 242 240 239 235 234 240 231 223 226 177 213 212 214 216 222 222 208 205 203 201 191 187 194 196 190 189 186 181 186 193 195 194 191 185 184 183 183 183 188 188 188 196 194 197 205 205 195 186 192 200 209 211 217 224 230 232 226 223 218 220 219 220 219 223 224 220 212 210 210 205 189 191 191 190
231 237 242 246 256 268 277 265 256 247 238 237 237 238 235 237 241 230 223 208 188 211 214 213 223 218 203 199 192 192 171 184 190 183 183 182 180 173 177 181 182 182 182 180 177 176 183 184 183 180 183 185 183 177 172 183 204 206 201 200 210 224 223 221 220 222 233 237 245 244 245 240 237 237 232 228 224 219 217 220 215 196 190 183 178
233 239 244 250 247 252 254 253 250 246 245 240 240 237 219 238 231 225 215 182 196 211 212 219 223 200 198 193 188 171 176 183 175 185 178 176 164 166 173 174 172 176 178 165 174 181 178 178 177 176 178 176 180 189 189 201 207 213 209 208 206 209 206 210 209 211 217 216 227 231 230 225 220 220 219 226 227 224 222 222 215 199 200 201 191
228 230 235 239 243 238 239 246 248 243 237 237 230 223 226 231 219 215 175 193 202 206 209 217 212 201 203 191 179 177 179 176 184 173 169 164 168 170 172 170 178 173 155 168 182 172 178 172 168 170 184 188 196 188 194 201 204 199 190 187 202 203 200 213 212 212 213 216 219 223 234 227 226 216 215 212 208 222 225 219 212 205 205 205 209
270 265 259 254 247 244 240 237 241 247 238 242 206 219 235 218 199 174 188 201 194 205 204 211 203 203 194 187 182 177 180 181 171 168 165 169 172 181 177 173 157 159 167 170 167 171 165 172 178 180 190 193 200 186 179 183 194 193 189 177 198 204 213 213 211 204 207 210 208 206 214 227 223 211 206 203 203 210 207 207 210 208 211 220 221
238 245 244 241 240 245 251 255 248 239 240 226 234 226 228 183 174 186 198 193 201 200 208 207 201 198 183 181 179 178 180 176 172 168 168 173 175 167 167 171 167 170 170 172 169 167 175 170 166 156 156 176 198 170 178 175 179 184 183 181 187 188 196 209 209 204 206 214 214 214 216 231 223 213 210 199 200 203 195 202 205 212 217 211 203
231 232 239 238 237 236 236 239 239 231 236 211 222 193 186 205 170 192 197 206 201 204 210 198 202 194 189 186 180 182 177 171 170 170 173 176 176 174 171 168 154 157 154 146 160 159 167 168 166 156 164 186 191 180 181 186 182 170 157 169 182 186 204 221 232 226 221 218 213 203 213 225 224 221 219 203 204 187 187 195 202 213 212 190 193
238 229 234 235 235 235 238 240 243 232 229 225 213 178 174 162 175 199 189 211 208 214 211 200 202 195 192 187 183 178 175 175 174 174 182 180 177 180 173 163 158 167 164 174 172 173 173 170 174 179 178 197 192 181 169 174 170 161 151 162 176 184 204 215 228 224 219 213 206 201 199 212 211 226 213 200 200 172 183 187 194 192 170 156 178
237 238 236 243 244 240 238 229 235 240 234 205 178 197 170 170 184 181 188 211 214 224 212 201 204 196 189 184 183 178 177 178 178 185 185 183 178 172 175 176 174 174 181 185 176 172 177 175 169 178 181 181 192 189 183 179 176 175 171 176 177 182 213 217 233 229 210 206 212 202 200 199 210 221 196 197 190 175 182 185 177 172 172 190 202
233 234 238 239 240 234 235 235 240 252 245 194 188 178 175 191 186 178 185 210 224 227 213 209 205 186 184 183 180 179 179 179 184 185 178 179 183 181 167 171 172 169 176 168 168 171 179 185 181 179 185 186 180 188 184 182 180 180 170 160 165 180 200 227 219 240 342 271 227 206 207 208 210 209 193 197 189 181 186 182 182 171 189 203 205
238 237 236 242 247 247 253 246 237 237 239 191 183 180 197 201 195 171 176 212 225 223 215 206 182 184 184 180 182 180 179 180 182 174 176 179 165 162 173 175 172 169 166 167 170 169 173 186 172 165 176 173 165 177 182 185 185 185 174 155 156 155 191 205 205 194 204 267 265 255 239 232 227 213 202 200 196 186 184 177 163 182 186 219 162
229 236 239 242 245 230 235 238 233 236 230 178 179 186 207 209 185 177 203 213 221 219 185 184 179 183 187 186 184 182 180 180 173 171 165 163 173 176 169 173 169 167 161 167 172 167 168 171 167 171 166 172 171 165 182 181 183 183 172 161 169 186 186 177 176 183 191 203 229 234 241 238 232 218 204 203 199 195 183 170 182 196 202 108 123
254 250 247 247 250 246 248 257 251 244 208 183 182 198 214 202 187 206 213 218 196 169 182 178 180 187 188 187 186 182 173 169 159 157 166 175 177 168 174 170 165 165 168 166 166 163 160 157 158 160 165 169 167 163 162 181 177 179 179 172 168 196 167 147 139 170 188 218 224 216 226 223 223 215 204 205 201 194 180 163 170 129 121 133 141
249 252 244 231 243 242 241 241 245 234 206 189 182 204 214 202 208 218 216 205 169 163 172 181 184 186 188 187 185 176 172 166 168 170 169 174 171 169 170 169 165 166 166 165 167 163 158 157 155 163 162 156 151 161 151 151 170 175 181 184 180 161 165 157 163 185 205 218 206 206 203 197 206 207 199 199 199 189 175 168 160 140 142 136 137
257 246 253 231 238 247 250 249 247 235 199 185 181 207 212 207 221 221 202 171 160 167 164 175 190 194 188 186 181 176 171 169 169 167 170 170 174 173 169 175 171 168 167 167 170 166 164 162 167 165 163 152 151 135 142 156 160 175 182 185 182 176 172 174 167 189 198 202 194 201 199 196 201 204 201 199 198 184 178 173 165 156 145 141 139
253 259 250 225 231 242 245 257 259 249 206 198 199 204 213 214 227 192 194 183 173 165 168 180 190 191 188 186 178 180 176 172 171 169 173 175 174 172 172 177 170 171 172 172 172 173 174 171 166 170 166 159 141 145 152 170 177 177 182 182 185 177 178 159 165 195 181 202 206 192 189 192 199 198 197 196 194 185 174 171 161 147 138 133 142
258 265 252 236 246 248 253 256 264 240 212 200 206 206 214 222 214 192 195 171 168 167 175 184 182 182 183 171 176 184 186 180 173 177 180 181 177 177 176 172 173 177 176 173 171 174 175 170 171 160 165 167 164 159 164 168 179 170 176 182 180 180 174 174 170 179 201 197 194 188 186 188 190 188 176 176 177 173 167 157 145 139 141 150 158
252 248 252 256 243 248 246 242 252 250 221 214 207 211 218 224 204 190 171 170 170 176 176 173 177 175 171 172 175 180 176 183 184 179 177 175 174 178 175 175 180 177 177 176 171 176 174 171 170 168 163 163 164 167 167 168 166 160 158 165 166 177 173 163 155 155 172 177 177 169 175 173 164 169 146 127 117 130 140 144 149 157 162 166 172
242 255 246 248 246 240 245 242 244 250 231 221 217 220 219 216 191 173 168 167 174 177 178 180 178 172 174 176 178 173 172 176 183 185 182 175 180 183 182 184 184 181 177 181 176 180 183 177 171 165 158 158 166 172 178 173 173 164 161 159 166 160 163 162 157 151 128 106 105 105 105 97 110 117 118 121 134 149 153 154 160 168 171 168 154
258 244 227 229 241 246 245 244 247 250 241 227 226 227 222 205 193 177 170 173 183 183 177 170 167 167 172 175 175 173 177 173 172 179 185 194 193 190 186 177 185 184 193 179 176 174 168 162 160 165 162 161 165 185 196 186 174 173 163 160 163 167 159 164 156 131 107 106 114 120 133 140 151 153 147 150 150 152 161 160 158 164 162 160 167
244 242 230 236 240 241 250 247 249 251 241 236 233 230 215 204 186 188 180 182 180 172 170 172 169 171 169 168 173 173 173 169 169 168 155 118 64 138 171 165 153 128 139 139 147 156 157 152 156 172 170 167 174 176 158 164 167 168 168 165 164 158 158 144 141 143 135 130 151 157 171 171 167 164 164 166 171 173 169 170 178 176 168 173 185
237 229 243 232 241 244 250 258 254 246 235 234 233 220 205 202 189 180 183 186 168 169 174 170 171 180 180 175 170 170 172 170 166 162 153 148 131 73 106 146 141 137 145 151 153 147 156 160 158 156 158 146 148 144 149 165 163 169 167 162 155 157 151 148 144 132 121 145 154 172 181 188 189 182 182 184 181 178 183 179 182 180 178 190 196